Main page
METAR-TAF:

METAR-TAF

Airports :

Oil platform

A12-cpp, Netherlands

latitude: 55-23-57N, longitude: 3-48-37E, elevation: 33 m

Current weather observation

The report was made 40 minutes ago, at 23:25 UTC
Wind 5 kt from the East, varying between North/Northeast and Southeast
Temperature 16°C
Humidity 88%
Pressure 1001 hPa
Visibility 10 km or more

METAR: EHAK 302325Z AUTO 09005KT 030V140 9999 FEW009/// BKN011/// BKN013/// 16/14 Q1001

Time: 02:05 (00:05 UTC)


TAF: missing

Weather observations and forecasts of more than 4000 airports (METAR and TAF reports).

The available stations are represented by yellow and red dots on the map.

Hover mouse over dot to see the name of the station.

Then click to see weather observations and forecasts.

To change the map : click on the green buttons with a black cross to zoom in, on the green button with a dash to zoom out, or on the green arrows for adjacent maps.


METAR-TAF: